|
Iridium 21 - Orbit
|
Willow Slough Fish and Wildlife Area;
23:21:02
| Home | Info | Passes |
|
View from above orbital plane
|
View from above satellite
|
Ground track
|
The orbit data is extracted from the following two-line orbital elements,
1 25778U 99032B 13169.44847079 .00000233 00000-0 75996-4 0 2828
2 25778 086.3987 114.1485 0002582 130.8845 007.8549 14.34219400738887
| Epoch (UTC): | 18 June 2013 10:45:47 |
| Eccentricity: | 0.0002582 |
| inclination: | 86.3987° |
| perigee height: | 776 km |
| apogee height: | 779 km |
| right ascension of ascending node: | 114.1485° |
| argument of perigee: | 130.8845° |
| revolutions per day: | 14.34219400 |
| mean anomaly at epoch: | 7.8549° |
| orbit number at epoch: | 73888 |
The dashed part of the orbit path shows where the satellite is in the earth's shadow,
|
|